,,,PA_Meas_PMT16A,,PR_Meas_QMR101_102,,RH_Meas_QMH101,,SR_Meas_QMS101,,TA_Meas_QMH101,,GenWind,,GenWind,
date,time,status,PA,status,PR,status,RH,status,SR,status,TA,status,DirAvg,status,SpdAvg,
2010-02-09, 00:00:04,VALID,1007.8,VALID,0,VALID,87.549,VALID,0,VALID,25.0877,VALID,205,VALID,0.439844,
2010-02-09, 00:01:04,VALID,1007.79,VALID,0,VALID,87.7779,VALID,0,VALID,25.0488,VALID,205,VALID,0.183984,
2010-02-09, 00:02:04,VALID,1007.77,VALID,0,VALID,87.6253,VALID,0,VALID,24.969,VALID,205,VALID,0.0234375,
2010-02-09, 00:03:04,VALID,1007.79,VALID,0,VALID,86.9311,VALID,0,VALID,24.93,VALID,205,VALID,0,
2010-02-09, 00:04:04,VALID,1007.76,VALID,0,VALID,87.0379,VALID,0,VALID,24.93,VALID,205,VALID,0,
2010-02-09, 00:05:04,VALID,1007.77,VALID,0,VALID,87.1905,VALID,0,VALID,24.93,VALID,205,VALID,0,
2010-02-09, 00:06:04,VALID,1007.78,VALID,0,VALID,87.4575,VALID,0,VALID,24.9106,VALID,205,VALID,0,
2010-02-09, 00:07:04,VALID,1007.75,VALID,0,VALID,87.5567,VALID,0,VALID,24.9106,VALID,205,VALID,0,
2010-02-09, 00:08:04,VALID,1007.75,VALID,0,VALID,87.8389,VALID,0,VALID,24.8911,VALID,219,VALID,0.096875,
2010-02-09, 00:09:04,VALID,1007.76,VALID,0,VALID,87.549,VALID,0,VALID,24.893,VALID,235,VALID,0.398828,
2010-02-09, 00:10:04,VALID,1007.76,VALID,0,VALID,87.4727,VALID,0,VALID,24.8327,VALID,235,VALID,0.00820312,
2010-02-09, 00:11:04,VALID,1007.73,VALID,0,VALID,87.8771,VALID,0,VALID,24.8327,VALID,235,VALID,0.104687,
2010-02-09, 00:12:04,VALID,1007.73,VALID,0,VALID,87.8847,VALID,0,VALID,24.8132,VALID,235,VALID,0.133594,
2010-02-09, 00:13:04,VALID,1007.71,VALID,0,VALID,87.6635,VALID,0,VALID,24.8132,VALID,235,VALID,0.129688,
2010-02-09, 00:14:04,VALID,1007.71,VALID,0,VALID,87.0074,VALID,0,VALID,24.8308,VALID,235,VALID,0.356641,
2010-02-09, 00:15:04,VALID,1007.69,VALID,0,VALID,86.9921,VALID,0.100563,VALID,24.8697,VALID,235,VALID,0,
2010-02-09, 00:16:04,VALID,1007.65,VALID,0,VALID,87.8389,VALID,0.100563,VALID,24.9087,VALID,235,VALID,0.455859,
2010-02-09, 00:17:04,VALID,1007.61,VALID,0,VALID,87.8389,VALID,0,VALID,24.8697,VALID,235,VALID,0.257813,
2010-02-09, 00:18:04,VALID,1007.59,VALID,0,VALID,88.1136,VALID,0,VALID,24.8095,VALID,235,VALID,0.638672,
2010-02-09, 00:19:04,VALID,1007.61,VALID,0,VALID,88.2051,VALID,0.100563,VALID,24.7919,VALID,235,VALID,0.507031,
2010-02-09, 00:20:04,VALID,1007.56,VALID,0,VALID,88.5713,VALID,0,VALID,24.7724,VALID,235,VALID,0.278906,
2010-02-09, 00:21:04,VALID,1007.57,VALID,0,VALID,88.6247,VALID,0,VALID,24.7529,VALID,235,VALID,0,
2010-02-09, 00:22:04,VALID,1007.54,VALID,0,VALID,88.8154,VALID,0,VALID,24.7529,VALID,235,VALID,0,
2010-02-09, 00:23:04,VALID,1007.52,VALID,0,VALID,88.8307,VALID,0.100563,VALID,24.7353,VALID,235,VALID,0,
2010-02-09, 00:24:04,VALID,1007.52,VALID,0,VALID,89.0672,VALID,0,VALID,24.714,VALID,235,VALID,0,
2010-02-09, 00:25:04,VALID,1007.52,VALID,0,VALID,88.8993,VALID,0,VALID,24.6945,VALID,235,VALID,0,
2010-02-09, 00:26:04,VALID,1007.48,VALID,0,VALID,89.2884,VALID,0,VALID,24.7159,VALID,235,VALID,0,
2010-02-09, 00:27:04,VALID,1007.46,VALID,0,VALID,89.3037,VALID,0,VALID,24.675,VALID,235,VALID,0,
2010-02-09, 00:28:04,VALID,1007.48,VALID,0,VALID,89.38,VALID,0.100563,VALID,24.6556,VALID,235,VALID,0,
2010-02-09, 00:29:04,VALID,1007.45,VALID,0,VALID,89.6165,VALID,0,VALID,24.6574,VALID,235,VALID,0,
2010-02-09, 00:30:04,VALID,1007.44,VALID,0,VALID,89.4639,VALID,0,VALID,24.6185,VALID,235,VALID,0,
2010-02-09, 00:31:04,VALID,1007.41,VALID,0,VALID,89.4181,VALID,0,VALID,24.599,VALID,235,VALID,0,
2010-02-09, 00:32:04,VALID,1007.4,VALID,0,VALID,89.4486,VALID,0,VALID,24.6204,VALID,235,VALID,0,
2010-02-09, 00:33:04,VALID,1007.4,VALID,0,VALID,89.3571,VALID,0,VALID,24.5796,VALID,235,VALID,0,
2010-02-09, 00:34:04,VALID,1007.37,VALID,0,VALID,89.502,VALID,0,VALID,24.6204,VALID,235,VALID,0,
2010-02-09, 00:35:04,VALID,1007.39,VALID,0,VALID,89.6546,VALID,0,VALID,24.6204,VALID,235,VALID,0,
2010-02-09, 00:36:04,VALID,1007.33,VALID,0,VALID,89.6699,VALID,0,VALID,24.5814,VALID,235,VALID,0,
2010-02-09, 00:37:04,VALID,1007.32,VALID,0,VALID,89.6622,VALID,0,VALID,24.5601,VALID,235,VALID,0,
2010-02-09, 00:38:04,VALID,1007.31,VALID,0,VALID,89.6393,VALID,0,VALID,24.5406,VALID,235,VALID,0,
2010-02-09, 00:39:04,VALID,1007.26,VALID,0,VALID,89.7538,VALID,0,VALID,24.5212,VALID,235,VALID,0,
2010-02-09, 00:40:04,VALID,1007.24,VALID,0,VALID,89.7843,VALID,0,VALID,24.5425,VALID,235,VALID,0,
2010-02-09, 00:41:04,VALID,1007.18,VALID,0,VALID,89.9064,VALID,0,VALID,24.523,VALID,235,VALID,0,
2010-02-09, 00:42:04,VALID,1007.18,VALID,0,VALID,89.9521,VALID,0,VALID,24.5017,VALID,235,VALID,0,
2010-02-09, 00:43:04,VALID,1007.17,VALID,0,VALID,89.9064,VALID,0,VALID,24.4822,VALID,187,VALID,0,
2010-02-09, 00:44:04,VALID,1007.13,VALID,0,VALID,89.6775,VALID,0,VALID,24.4433,VALID,110,VALID,0,
2010-02-09, 00:45:04,VALID,1007.13,VALID,0,VALID,89.647,VALID,0,VALID,24.4238,VALID,110,VALID,0,
2010-02-09, 00:46:04,VALID,1007.1,VALID,0,VALID,89.8301,VALID,0,VALID,24.4043,VALID,110,VALID,0,
2010-02-09, 00:47:04,VALID,1007.09,VALID,0,VALID,89.8453,VALID,0,VALID,24.4043,VALID,110,VALID,0,
2010-02-09, 00:48:04,VALID,1007.1,VALID,0,VALID,90.036,VALID,0,VALID,24.4043,VALID,110,VALID,0,
2010-02-09, 00:49:04,VALID,1007.07,VALID,0,VALID,89.9521,VALID,0,VALID,24.3636,VALID,110,VALID,0,
2010-02-09, 00:50:04,VALID,1007.04,VALID,0,VALID,89.853,VALID,0,VALID,24.3441,VALID,110,VALID,0,
2010-02-09, 00:51:04,VALID,1007.01,VALID,0,VALID,89.9064,VALID,0,VALID,24.3636,VALID,110,VALID,0,
2010-02-09, 00:52:04,VALID,1007.03,VALID,0,VALID,89.9826,VALID,0,VALID,24.3849,VALID,110,VALID,0,
2010-02-09, 00:53:04,VALID,1006.99,VALID,0,VALID,90.0894,VALID,0,VALID,24.3654,VALID,110,VALID,0,
2010-02-09, 00:54:04,VALID,1006.98,VALID,0,VALID,89.9369,VALID,0,VALID,24.3654,VALID,110,VALID,0,
2010-02-09, 00:55:04,VALID,1006.95,VALID,0,VALID,89.8911,VALID,0,VALID,24.3246,VALID,81,VALID,0.219531,
2010-02-09, 00:56:04,VALID,1006.98,VALID,0,VALID,89.769,VALID,0,VALID,24.3654,VALID,53,VALID,0.276953,
2010-02-09, 00:57:04,VALID,1006.96,VALID,0,VALID,89.6927,VALID,0,VALID,24.3654,VALID,53,VALID,0.101172,
2010-02-09, 00:58:04,VALID,1007.01,VALID,0,VALID,89.9064,VALID,0,VALID,24.3636,VALID,53,VALID,0,
2010-02-09, 00:59:04,VALID,1006.95,VALID,0,VALID,89.914,VALID,0,VALID,24.4043,VALID,53,VALID,0.179297,
2010-02-09, 01:00:04,VALID,1006.97,VALID,0,VALID,89.8835,VALID,0,VALID,24.4025,VALID,53,VALID,0.296875,
2010-02-09, 01:01:04,VALID,1006.98,VALID,0,VALID,89.769,VALID,0,VALID,24.4238,VALID,249,VALID,0.437109,
2010-02-09, 01:02:04,VALID,1006.99,VALID,0,VALID,89.3952,VALID,0,VALID,24.4433,VALID,249,VALID,0.0300781,
2010-02-09, 01:03:04,VALID,1006.96,VALID,0,VALID,89.2655,VALID,0,VALID,24.4822,VALID,249,VALID,0.349609,
2010-02-09, 01:04:04,VALID,1006.97,VALID,0,VALID,89.0367,VALID,0,VALID,24.5017,VALID,249,VALID,0.148047,
2010-02-09, 01:05:04,VALID,1006.96,VALID,0,VALID,88.7849,VALID,0,VALID,24.5212,VALID,249,VALID,0.149219,
2010-02-09, 01:06:04,VALID,1006.95,VALID,0,VALID,88.1746,VALID,0,VALID,24.5406,VALID,249,VALID,0.183203,
2010-02-09, 01:07:04,VALID,1006.96,VALID,0,VALID,88.2738,VALID,0,VALID,24.599,VALID,249,VALID,0,
2010-02-09, 01:08:04,VALID,1006.95,VALID,0,VALID,88.5713,VALID,0,VALID,24.638,VALID,249,VALID,0,
2010-02-09, 01:09:04,VALID,1006.9,VALID,0,VALID,88.6705,VALID,0,VALID,24.6593,VALID,249,VALID,0,
2010-02-09, 01:10:04,VALID,1006.92,VALID,0,VALID,88.8002,VALID,0,VALID,24.638,VALID,249,VALID,0,
2010-02-09, 01:11:04,VALID,1006.9,VALID,0,VALID,88.7162,VALID,0,VALID,24.5972,VALID,249,VALID,0.308594,
2010-02-09, 01:12:04,VALID,1006.88,VALID,0,VALID,88.8154,VALID,0,VALID,24.6185,VALID,249,VALID,0.0304688,
2010-02-09, 01:13:04,VALID,1006.9,VALID,0,VALID,88.8612,VALID,0,VALID,24.5777,VALID,249,VALID,0.00078125,
2010-02-09, 01:14:04,VALID,1006.89,VALID,0,VALID,88.8993,VALID,0,VALID,24.5796,VALID,249,VALID,0,
2010-02-09, 01:15:04,VALID,1006.86,VALID,0,VALID,88.9756,VALID,0,VALID,24.5796,VALID,249,VALID,0.0046875,
2010-02-09, 01:16:04,VALID,1006.84,VALID,0,VALID,89.0824,VALID,0,VALID,24.5582,VALID,249,VALID,0,
2010-02-09, 01:17:04,VALID,1006.85,VALID,0,VALID,89.0748,VALID,0,VALID,24.5814,VALID,249,VALID,0,
2010-02-09, 01:18:04,VALID,1006.84,VALID,0,VALID,89.1587,VALID,0,VALID,24.5601,VALID,249,VALID,0.0207031,
2010-02-09, 01:19:04,VALID,1006.81,VALID,0,VALID,89.6851,VALID,0,VALID,24.5796,VALID,249,VALID,0.335156,
2010-02-09, 01:20:04,VALID,1006.78,VALID,0,VALID,89.9216,VALID,0,VALID,24.5601,VALID,249,VALID,0.220313,
2010-02-09, 01:21:04,VALID,1006.78,VALID,0,VALID,89.9674,VALID,0,VALID,24.4998,VALID,249,VALID,0.235547,
2010-02-09, 01:22:04,VALID,1006.74,VALID,0,VALID,89.9903,VALID,0,VALID,24.4414,VALID,249,VALID,0.145703,
2010-02-09, 01:23:04,VALID,1006.73,VALID,0,VALID,90.0284,VALID,0,VALID,24.4025,VALID,249,VALID,0.155859,
2010-02-09, 01:24:04,VALID,1006.7,VALID,0,VALID,90.0818,VALID,0.100563,VALID,24.383,VALID,249,VALID,0,
2010-02-09, 01:25:04,VALID,1006.66,VALID,0,VALID,90.12,VALID,0,VALID,24.3849,VALID,249,VALID,0,
2010-02-09, 01:26:04,VALID,1006.66,VALID,0,VALID,90.2191,VALID,0,VALID,24.3654,VALID,249,VALID,0.176563,
2010-02-09, 01:27:04,VALID,1006.65,VALID,0,VALID,90.593,VALID,0,VALID,24.3654,VALID,31,VALID,0.707031,
2010-02-09, 01:28:04,VALID,1006.62,VALID,0,VALID,91.0202,VALID,0,VALID,24.3459,VALID,27,VALID,0.453516,
2010-02-09, 01:29:04,VALID,1006.61,VALID,0,VALID,91.0125,VALID,0,VALID,24.307,VALID,21,VALID,0.332031,
2010-02-09, 01:30:04,VALID,1006.6,VALID,0,VALID,91.0354,VALID,0,VALID,24.2468,VALID,21,VALID,0.225781,
2010-02-09, 01:31:04,VALID,1006.59,VALID,0,VALID,91.1804,VALID,0,VALID,24.2681,VALID,21,VALID,0,
2010-02-09, 01:32:04,VALID,1006.62,VALID,0,VALID,91.4016,VALID,0,VALID,24.2681,VALID,21,VALID,0.355859,
2010-02-09, 01:33:04,VALID,1006.61,VALID,0,VALID,91.3635,VALID,0,VALID,24.2681,VALID,21,VALID,0,
2010-02-09, 01:34:04,VALID,1006.61,VALID,0,VALID,91.394,VALID,0,VALID,24.2273,VALID,21,VALID,0,
2010-02-09, 01:35:04,VALID,1006.62,VALID,0,VALID,91.4855,VALID,0,VALID,24.2078,VALID,21,VALID,0,
2010-02-09, 01:36:04,VALID,1006.63,VALID,0,VALID,91.4474,VALID,0,VALID,24.2097,VALID,21,VALID,0,
2010-02-09, 01:37:04,VALID,1006.6,VALID,0,VALID,91.4626,VALID,0,VALID,24.2078,VALID,21,VALID,0,
2010-02-09, 01:38:04,VALID,1006.62,VALID,0,VALID,91.5695,VALID,0,VALID,24.2097,VALID,21,VALID,0,
2010-02-09, 01:39:04,VALID,1006.61,VALID,0,VALID,91.6381,VALID,0,VALID,24.2097,VALID,21,VALID,0.220313,
2010-02-09, 01:40:04,VALID,1006.61,VALID,0,VALID,91.6152,VALID,0,VALID,24.2078,VALID,21,VALID,0,
2010-02-09, 01:41:04,VALID,1006.61,VALID,0,VALID,91.5542,VALID,0,VALID,24.2291,VALID,21,VALID,0,
2010-02-09, 01:42:04,VALID,1006.59,VALID,0,VALID,91.7754,VALID,0,VALID,24.2681,VALID,21,VALID,0.248437,
2010-02-09, 01:43:04,VALID,1006.59,VALID,0,VALID,91.867,VALID,0,VALID,24.2273,VALID,21,VALID,0.590234,
2010-02-09, 01:44:04,VALID,1006.6,VALID,0,VALID,91.8899,VALID,0,VALID,24.2291,VALID,21,VALID,0.505078,
2010-02-09, 01:45:04,VALID,1006.59,VALID,0,VALID,91.9585,VALID,0,VALID,24.2097,VALID,21,VALID,0.259766,
2010-02-09, 01:46:04,VALID,1006.62,VALID,0,VALID,92.1111,VALID,0.100563,VALID,24.1902,VALID,21,VALID,0.315625,
2010-02-09, 01:47:04,VALID,1006.62,VALID,0,VALID,92.1645,VALID,0,VALID,24.1494,VALID,21,VALID,0.192188,
2010-02-09, 01:48:04,VALID,1006.63,VALID,0,VALID,92.1645,VALID,0,VALID,24.1707,VALID,21,VALID,0,
2010-02-09, 01:49:04,VALID,1006.63,VALID,0,VALID,92.2179,VALID,0,VALID,24.13,VALID,21,VALID,0,
2010-02-09, 01:50:04,VALID,1006.66,VALID,0,VALID,92.3476,VALID,0,VALID,24.1513,VALID,21,VALID,0,
2010-02-09, 01:51:04,VALID,1006.63,VALID,0,VALID,92.4544,VALID,0,VALID,24.1105,VALID,21,VALID,0,
2010-02-09, 01:52:04,VALID,1006.65,VALID,0,VALID,92.546,VALID,0,VALID,24.1318,VALID,21,VALID,0,
2010-02-09, 01:53:04,VALID,1006.63,VALID,0,VALID,92.6146,VALID,0,VALID,24.1318,VALID,21,VALID,0,
2010-02-09, 01:54:04,VALID,1006.63,VALID,0,VALID,92.7138,VALID,0.100563,VALID,24.13,VALID,21,VALID,0.289453,
2010-02-09, 01:55:04,VALID,1006.62,VALID,0,VALID,92.7443,VALID,0,VALID,24.1513,VALID,21,VALID,0.297266,
2010-02-09, 01:56:04,VALID,1006.61,VALID,0,VALID,92.7977,VALID,0.100563,VALID,24.1318,VALID,21,VALID,0.1125,
2010-02-09, 01:57:04,VALID,1006.58,VALID,0,VALID,92.7901,VALID,0,VALID,24.091,VALID,21,VALID,0.0183594,
2010-02-09, 01:58:04,VALID,1006.6,VALID,0,VALID,92.8587,VALID,0.100563,VALID,24.1123,VALID,21,VALID,0.230078,
2010-02-09, 01:59:04,VALID,1006.56,VALID,0,VALID,92.9503,VALID,0,VALID,24.0929,VALID,21,VALID,0,
2010-02-09, 02:00:04,VALID,1006.57,VALID,0,VALID,92.9732,VALID,0,VALID,24.0929,VALID,21,VALID,0,
2010-02-09, 02:01:04,VALID,1006.57,VALID,0,VALID,93.0189,VALID,0,VALID,24.0734,VALID,21,VALID,0,
2010-02-09, 02:02:04,VALID,1006.56,VALID,0,VALID,93.0342,VALID,0,VALID,24.0716,VALID,21,VALID,0,
2010-02-09, 02:03:04,VALID,1006.59,VALID,0,VALID,93.0037,VALID,0,VALID,24.0734,VALID,21,VALID,0,
2010-02-09, 02:04:04,VALID,1006.6,VALID,0,VALID,92.9579,VALID,0.100563,VALID,24.0326,VALID,21,VALID,0,
2010-02-09, 02:05:04,VALID,1006.55,VALID,0,VALID,92.9732,VALID,0,VALID,24.0539,VALID,21,VALID,0,
2010-02-09, 02:06:04,VALID,1006.56,VALID,0,VALID,92.9961,VALID,0,VALID,24.0326,VALID,21,VALID,0,
2010-02-09, 02:07:04,VALID,1006.57,VALID,0,VALID,92.9808,VALID,0,VALID,24.0132,VALID,21,VALID,0,
2010-02-09, 02:08:04,VALID,1006.56,VALID,0,VALID,92.9503,VALID,0,VALID,24.0345,VALID,21,VALID,0,
2010-02-09, 02:09:04,VALID,1006.56,VALID,0,VALID,92.9579,VALID,0,VALID,24.0326,VALID,21,VALID,0,
2010-02-09, 02:10:04,VALID,1006.53,VALID,0,VALID,93.0342,VALID,0,VALID,24.0539,VALID,21,VALID,0.235938,
2010-02-09, 02:11:04,VALID,1006.56,VALID,0,VALID,93.08,VALID,0,VALID,24.0521,VALID,21,VALID,0.279297,
2010-02-09, 02:12:04,VALID,1006.51,VALID,0,VALID,93.0876,VALID,0,VALID,24.0734,VALID,21,VALID,0.469141,
2010-02-09, 02:13:04,VALID,1006.5,VALID,0,VALID,93.1257,VALID,0,VALID,24.0716,VALID,21,VALID,0.276953,
2010-02-09, 02:14:04,VALID,1006.52,VALID,0,VALID,93.1639,VALID,0,VALID,24.0734,VALID,21,VALID,0.0984375,
2010-02-09, 02:15:04,VALID,1006.49,VALID,0,VALID,93.1563,VALID,0,VALID,24.0734,VALID,21,VALID,0.186719,
2010-02-09, 02:16:04,VALID,1006.52,VALID,0,VALID,93.1639,VALID,0,VALID,24.0539,VALID,21,VALID,0.380078,
2010-02-09, 02:17:04,VALID,1006.5,VALID,0,VALID,93.2478,VALID,0.100563,VALID,24.0326,VALID,21,VALID,0.366797,
2010-02-09, 02:18:04,VALID,1006.51,VALID,0,VALID,93.2936,VALID,0,VALID,24.0326,VALID,21,VALID,0.432031,
2010-02-09, 02:19:04,VALID,1006.48,VALID,0,VALID,93.2631,VALID,0.100563,VALID,24.0132,VALID,21,VALID,0.400781,
2010-02-09, 02:20:04,VALID,1006.49,VALID,0,VALID,93.2402,VALID,0.100563,VALID,24.015,VALID,21,VALID,0.23125,
2010-02-09, 02:21:04,VALID,1006.46,VALID,0,VALID,93.2554,VALID,0,VALID,24.015,VALID,21,VALID,0,
2010-02-09, 02:22:04,VALID,1006.49,VALID,0,VALID,93.2325,VALID,0,VALID,24.015,VALID,21,VALID,0.0160156,
2010-02-09, 02:23:04,VALID,1006.45,VALID,0,VALID,93.1791,VALID,0,VALID,24.0132,VALID,21,VALID,0.192969,
2010-02-09, 02:24:04,VALID,1006.44,VALID,0,VALID,93.0952,VALID,0,VALID,23.9937,VALID,21,VALID,0,
2010-02-09, 02:25:05,VALID,1006.45,VALID,0,VALID,93.0952,VALID,0,VALID,23.9937,VALID,21,VALID,0.477734,
2010-02-09, 02:26:05,VALID,1006.4,VALID,0,VALID,93.0876,VALID,0,VALID,24.0132,VALID,21,VALID,0.369922,
2010-02-09, 02:27:05,VALID,1006.41,VALID,0,VALID,93.1257,VALID,0.100563,VALID,24.0345,VALID,21,VALID,0.303906,
2010-02-09, 02:28:05,VALID,1006.39,VALID,0,VALID,93.1715,VALID,0,VALID,24.0132,VALID,21,VALID,0.248047,
2010-02-09, 02:29:05,VALID,1006.39,VALID,0,VALID,93.1715,VALID,0.100563,VALID,24.0132,VALID,21,VALID,0.253516,
2010-02-09, 02:30:05,VALID,1006.35,VALID,0,VALID,93.2173,VALID,0,VALID,24.0132,VALID,21,VALID,0.369922,
2010-02-09, 02:31:05,VALID,1006.42,VALID,0,VALID,93.2173,VALID,0,VALID,24.0132,VALID,21,VALID,0.258203,
2010-02-09, 02:32:05,VALID,1006.39,VALID,0,VALID,93.1791,VALID,0.100563,VALID,24.015,VALID,21,VALID,0.103906,
2010-02-09, 02:33:05,VALID,1006.39,VALID,0,VALID,93.1029,VALID,0,VALID,24.015,VALID,21,VALID,0,
2010-02-09, 02:34:05,VALID,1006.4,VALID,0,VALID,92.9426,VALID,0,VALID,23.953,VALID,21,VALID,0.1625,
2010-02-09, 02:35:05,VALID,1006.42,VALID,0,VALID,92.8282,VALID,0.100563,VALID,23.9937,VALID,21,VALID,0,
2010-02-09, 02:36:05,VALID,1006.42,VALID,0,VALID,92.729,VALID,0.100563,VALID,24.0132,VALID,21,VALID,0,
2010-02-09, 02:37:05,VALID,1006.4,VALID,0,VALID,92.7138,VALID,0,VALID,24.0132,VALID,21,VALID,0,
2010-02-09, 02:38:05,VALID,1006.41,VALID,0,VALID,92.6909,VALID,0,VALID,24.0539,VALID,21,VALID,0,
2010-02-09, 02:39:05,VALID,1006.42,VALID,0,VALID,92.7214,VALID,0,VALID,24.0326,VALID,21,VALID,0,
2010-02-09, 02:40:05,VALID,1006.38,VALID,0,VALID,92.7214,VALID,0,VALID,24.0521,VALID,21,VALID,0,
2010-02-09, 02:41:05,VALID,1006.36,VALID,0,VALID,92.7367,VALID,0.100563,VALID,24.0716,VALID,21,VALID,0,
2010-02-09, 02:42:05,VALID,1006.38,VALID,0,VALID,92.7672,VALID,0,VALID,24.0929,VALID,21,VALID,0,
2010-02-09, 02:43:05,VALID,1006.41,VALID,0,VALID,92.7748,VALID,0.100563,VALID,24.091,VALID,21,VALID,0,
2010-02-09, 02:44:05,VALID,1006.38,VALID,0,VALID,92.7519,VALID,0,VALID,24.091,VALID,21,VALID,0,
2010-02-09, 02:45:05,VALID,1006.39,VALID,0,VALID,92.7138,VALID,0,VALID,24.091,VALID,21,VALID,0,
2010-02-09, 02:46:05,VALID,1006.35,VALID,0,VALID,92.7443,VALID,0,VALID,24.091,VALID,21,VALID,0,
2010-02-09, 02:47:05,VALID,1006.35,VALID,0,VALID,92.7824,VALID,0,VALID,24.1318,VALID,21,VALID,0,
2010-02-09, 02:48:05,VALID,1006.36,VALID,0,VALID,92.8206,VALID,0,VALID,24.1318,VALID,21,VALID,0,
2010-02-09, 02:49:05,VALID,1006.37,VALID,0,VALID,92.8206,VALID,0,VALID,24.1513,VALID,21,VALID,0,
2010-02-09, 02:50:05,VALID,1006.35,VALID,0,VALID,92.7748,VALID,0,VALID,24.13,VALID,21,VALID,0.398828,
2010-02-09, 02:51:05,VALID,1006.37,VALID,0,VALID,92.729,VALID,0,VALID,24.1318,VALID,21,VALID,0.149609,
2010-02-09, 02:52:05,VALID,1006.34,VALID,0,VALID,92.7748,VALID,0,VALID,24.1105,VALID,21,VALID,0,
2010-02-09, 02:53:05,VALID,1006.32,VALID,0,VALID,92.8511,VALID,0,VALID,24.1123,VALID,21,VALID,0.386328,
2010-02-09, 02:54:05,VALID,1006.29,VALID,0,VALID,92.8969,VALID,0,VALID,24.1123,VALID,21,VALID,0.324609,
2010-02-09, 02:55:05,VALID,1006.31,VALID,0,VALID,92.9426,VALID,0,VALID,24.0734,VALID,21,VALID,0.3,
2010-02-09, 02:56:05,VALID,1006.27,VALID,0,VALID,92.9961,VALID,0,VALID,24.0326,VALID,21,VALID,0.264453,
2010-02-09, 02:57:05,VALID,1006.27,VALID,0,VALID,93.0571,VALID,0,VALID,24.0326,VALID,21,VALID,0.280469,
2010-02-09, 02:58:05,VALID,1006.25,VALID,0,VALID,93.1105,VALID,0,VALID,24.0345,VALID,21,VALID,0.319922,
2010-02-09, 02:59:05,VALID,1006.24,VALID,0,VALID,93.1868,VALID,0,VALID,24.0345,VALID,21,VALID,0.339063,
2010-02-09, 03:00:05,VALID,1006.25,VALID,0,VALID,93.1791,VALID,0,VALID,24.015,VALID,21,VALID,0.333984,
2010-02-09, 03:01:05,VALID,1006.23,VALID,0,VALID,93.2402,VALID,0,VALID,23.9955,VALID,21,VALID,0.284766,
2010-02-09, 03:02:05,VALID,1006.22,VALID,0,VALID,93.2707,VALID,0,VALID,23.9955,VALID,21,VALID,0.151172,
2010-02-09, 03:03:05,VALID,1006.22,VALID,0,VALID,93.2859,VALID,0,VALID,23.9761,VALID,21,VALID,0,
2010-02-09, 03:04:05,VALID,1006.22,VALID,0,VALID,93.3394,VALID,0,VALID,23.9761,VALID,21,VALID,0,
2010-02-09, 03:05:05,VALID,1006.2,VALID,0,VALID,93.3775,VALID,0,VALID,23.9566,VALID,21,VALID,0,
2010-02-09, 03:06:05,VALID,1006.21,VALID,0,VALID,93.4156,VALID,0,VALID,23.9566,VALID,21,VALID,0,
2010-02-09, 03:07:05,VALID,1006.17,VALID,0,VALID,93.4614,VALID,0,VALID,23.9353,VALID,21,VALID,0,
2010-02-09, 03:08:05,VALID,1006.17,VALID,0,VALID,93.5301,VALID,0,VALID,23.9548,VALID,21,VALID,0,
2010-02-09, 03:09:05,VALID,1006.17,VALID,0,VALID,93.5835,VALID,0,VALID,23.9761,VALID,21,VALID,0.00585938,
2010-02-09, 03:10:05,VALID,1006.14,VALID,0,VALID,93.5911,VALID,0,VALID,23.9353,VALID,21,VALID,0.325391,
2010-02-09, 03:11:05,VALID,1006.15,VALID,0,VALID,93.5453,VALID,0,VALID,23.8964,VALID,21,VALID,0.238281,
2010-02-09, 03:12:05,VALID,1006.17,VALID,0,VALID,93.4919,VALID,0,VALID,23.8769,VALID,21,VALID,0.0605469,
2010-02-09, 03:13:05,VALID,1006.13,VALID,0,VALID,93.4462,VALID,0,VALID,23.8769,VALID,21,VALID,0,
2010-02-09, 03:14:05,VALID,1006.13,VALID,0,VALID,93.408,VALID,0.100563,VALID,23.8787,VALID,21,VALID,0,
2010-02-09, 03:15:05,VALID,1006.11,VALID,0,VALID,93.3928,VALID,0,VALID,23.8398,VALID,21,VALID,0,
2010-02-09, 03:16:05,VALID,1006.11,VALID,0,VALID,93.3394,VALID,0,VALID,23.838,VALID,21,VALID,0,
2010-02-09, 03:17:05,VALID,1006.11,VALID,0,VALID,93.2936,VALID,0.100563,VALID,23.8185,VALID,21,VALID,0.00585938,
2010-02-09, 03:18:05,VALID,1006.08,VALID,0,VALID,93.2325,VALID,0,VALID,23.7991,VALID,21,VALID,0.366406,
2010-02-09, 03:19:05,VALID,1006.04,VALID,0,VALID,93.2173,VALID,0,VALID,23.7991,VALID,21,VALID,0.00546875,
2010-02-09, 03:20:05,VALID,1006.08,VALID,0,VALID,93.2631,VALID,0,VALID,23.8009,VALID,21,VALID,0,
2010-02-09, 03:21:05,VALID,1006.04,VALID,0,VALID,93.2707,VALID,0,VALID,23.7814,VALID,21,VALID,0,
2010-02-09, 03:22:05,VALID,1006.06,VALID,0,VALID,93.2936,VALID,0,VALID,23.7814,VALID,21,VALID,0.232422,
2010-02-09, 03:23:05,VALID,1006.06,VALID,0,VALID,93.2478,VALID,0,VALID,23.7425,VALID,21,VALID,0.00117188,
2010-02-09, 03:24:05,VALID,1006.06,VALID,0,VALID,93.2097,VALID,0,VALID,23.723,VALID,21,VALID,0.434375,
2010-02-09, 03:25:05,VALID,1006.03,VALID,0,VALID,93.1868,VALID,0,VALID,23.723,VALID,21,VALID,0.433203,
2010-02-09, 03:26:05,VALID,1006.05,VALID,0,VALID,93.1791,VALID,0,VALID,23.7035,VALID,21,VALID,0.244922,
2010-02-09, 03:27:05,VALID,1005.99,VALID,0,VALID,93.1563,VALID,0,VALID,23.6628,VALID,21,VALID,0.109766,
2010-02-09, 03:28:05,VALID,1005.99,VALID,0,VALID,93.1868,VALID,0,VALID,23.6841,VALID,21,VALID,0.132813,
2010-02-09, 03:29:05,VALID,1006.02,VALID,0,VALID,93.1639,VALID,0,VALID,23.6646,VALID,21,VALID,0.564453,
2010-02-09, 03:30:05,VALID,1006.01,VALID,0,VALID,93.1944,VALID,0,VALID,23.6646,VALID,21,VALID,0.371875,
2010-02-09, 03:31:05,VALID,1006,VALID,0,VALID,93.2097,VALID,0,VALID,23.6841,VALID,73,VALID,0.65,
2010-02-09, 03:32:05,VALID,1006,VALID,0,VALID,93.1563,VALID,0,VALID,23.6823,VALID,74,VALID,0.693359,
2010-02-09, 03:33:05,VALID,1005.99,VALID,0,VALID,92.9884,VALID,0,VALID,23.723,VALID,74,VALID,0.145703,
2010-02-09, 03:34:05,VALID,1005.97,VALID,0,VALID,92.8282,VALID,0,VALID,23.723,VALID,68,VALID,0.319531,
2010-02-09, 03:35:05,VALID,1005.94,VALID,0,VALID,92.7062,VALID,0,VALID,23.6628,VALID,68,VALID,0.468359,
2010-02-09, 03:36:05,VALID,1005.98,VALID,0,VALID,92.7519,VALID,0,VALID,23.7619,VALID,31,VALID,0.905078,
2010-02-09, 03:37:05,VALID,1005.99,VALID,0,VALID,92.5307,VALID,0,VALID,23.7796,VALID,20,VALID,0.279297,
2010-02-09, 03:38:05,VALID,1005.99,VALID,0,VALID,92.2332,VALID,0,VALID,23.7991,VALID,20,VALID,0.1875,
2010-02-09, 03:39:05,VALID,1005.98,VALID,0,VALID,91.9433,VALID,0,VALID,23.8398,VALID,26,VALID,0.428516,
2010-02-09, 03:40:05,VALID,1006.01,VALID,0,VALID,91.7373,VALID,0,VALID,23.8787,VALID,46,VALID,0.707422,
2010-02-09, 03:41:05,VALID,1006.01,VALID,0,VALID,91.3864,VALID,0,VALID,23.9955,VALID,43,VALID,0.353125,
2010-02-09, 03:42:05,VALID,1006.02,VALID,0,VALID,90.5472,VALID,0,VALID,24.0929,VALID,45,VALID,0.507031,
2010-02-09, 03:43:05,VALID,1006.02,VALID,0,VALID,89.914,VALID,0,VALID,24.1513,VALID,60,VALID,0.492969,
2010-02-09, 03:44:05,VALID,1006.03,VALID,0,VALID,89.5707,VALID,0,VALID,24.1494,VALID,77,VALID,0.5875,
2010-02-09, 03:45:05,VALID,1006.06,VALID,0,VALID,89.3342,VALID,0,VALID,24.1884,VALID,101,VALID,0.110156,
2010-02-09, 03:46:05,VALID,1006.07,VALID,0,VALID,89.2045,VALID,0,VALID,24.2097,VALID,98,VALID,0.242188,
2010-02-09, 03:47:05,VALID,1006.06,VALID,0,VALID,89.0824,VALID,0,VALID,24.1884,VALID,77,VALID,0.173047,
2010-02-09, 03:48:05,VALID,1006.05,VALID,0,VALID,89.0214,VALID,0,VALID,24.1707,VALID,53,VALID,0.59375,
2010-02-09, 03:49:05,VALID,1006.06,VALID,0,VALID,89.2274,VALID,0,VALID,24.0521,VALID,31,VALID,0.463672,
2010-02-09, 03:50:05,VALID,1006.06,VALID,0,VALID,89.4486,VALID,0,VALID,23.9761,VALID,9,VALID,0.741797,
2010-02-09, 03:51:05,VALID,1006.09,VALID,0,VALID,90.036,VALID,0,VALID,23.8787,VALID,9,VALID,0.177344,